If you wish to contribute or participate in the discussions about articles you are invited to join SKYbrary as a registered user

 Actions

Ain Arnat Airport

From SKYbrary Wiki

DAAS
Airport
ICAO: DAAS – IATA: QSF
Summary
Name Ain Arnat Airport
Region Africa
Territory Algeria DZ.gif
Location , Setif
Serving Setif
Elevation 1,024.128 m <br />3,360 ft <br />3,360 ft1,024.128 m <br />
Type medium airport
Coordinates 36° 10' 41.16" N, 5° 19' 28.16" E
Runways
Designator Length Width Surface ROPS


METAR
Observation DAAS 152300Z VRB02KT 9999 FEW030 SCT100 10/02 Q1020
Station Setif
Date/Time 15 October 2021 23:00:00
Wind direction °
Wind speed 02 kts
Lowest cloud amount few clouds
Temperature 10°C
Dew point 2°C
Humidity 57%
QNH 1020 hPa
Weather condition n/a